Location: Croissy-Beaubourg
(48.8283°N, 2.6696°E)
Time: 16:17:09
(UTC+00:00)

Cosmos 389 Rocket - Pass Details

Date: 16 October 2021
Orbit: 439 x 468 km, 81.1° (Epoch: 28 November)

Event Time Altitude Azimuth Distance (km) Brightness Sun altitude
Rises 17:21:42 0° 159° (SSE) 2,415 6.0 -4.7°
Reaches altitude 10° 17:24:03 10° 143° (SE) 1,552 4.8 -5.1°
Maximum altitude 17:26:41 21° 91° (E) 1,036 3.6 -5.6°
Drops below altitude 10° 17:29:20 10° 40° (NE) 1,568 4.7 -6.0°
Sets 17:31:43 0° 25° (NNE) 2,447 5.8 -6.4°
